This demonstration page uses our WeatherBlox Daily Observations layout. Learn more.

Left ArrowRight Arrow

Hourly Observations for July 27, 2018

Temp ( °F °C ) Dew Point ( °F °C ) Humidity (%) Winds ( mph kmh ) Pressure ( in mb ) Visibility ( mi km ) Precip ( " mm )
12:15 am 00:15 Clear 72 22 70 21 94 94 Calm 30.00 1016 10 16 0.00 0.00
12:35 am 00:35 Clear 72 22 70 21 94 94 Calm 30.00 1016 10 16 0.00 0.00
12:55 am 00:55 Partly Cloudy 72 22 70 21 94 94 Calm 29.97 1015 10 16 0.00 0.00
1:15 am 01:15 Clear 70 21 70 21 100 100 WSW 5 7 29.97 1015 10 16 0.00 0.00
1:35 am 01:35 Clear 70 21 70 21 100 100 Calm 29.97 1015 10 16 0.00 0.00
1:55 am 01:55 Clear 70 21 70 21 100 100 Calm 29.97 1015 10 16 0.00 0.00
2:15 am 02:15 Clear 70 21 70 21 100 100 Calm 29.97 1015 10 16 0.00 0.00
2:35 am 02:35 Clear 70 21 70 21 100 100 Calm 29.97 1015 10 16 0.00 0.00
2:55 am 02:55 Clear 70 21 70 21 100 100 Calm 29.97 1015 10 16 0.00 0.00
3:15 am 03:15 Clear 68 20 68 20 100 100 Calm 29.97 1015 10 16 0.00 0.00
3:35 am 03:35 Clear 68 20 68 20 100 100 Calm 29.97 1015 7 11 0.00 0.00
3:55 am 03:55 Clear 68 20 68 20 100 100 Calm 29.97 1015 10 16 0.00 0.00
4:15 am 04:15 Clear 68 20 68 20 100 100 Calm 29.97 1015 10 16 0.00 0.00
4:35 am 04:35 Clear 68 20 68 20 100 100 Calm 29.97 1015 10 16 0.00 0.00
4:55 am 04:55 Clear 68 20 68 20 100 100 Calm 29.97 1015 10 16 0.00 0.00
5:15 am 05:15 Clear 68 20 68 20 100 100 Calm 29.97 1015 7 11 0.00 0.00
5:35 am 05:35 Clear 66 19 66 19 100 100 Calm 29.97 1015 10 16 0.00 0.00
5:55 am 05:55 Clear 68 20 68 20 100 100 Calm 29.97 1015 10 16 0.00 0.00
6:15 am 06:15 Sunny 66 19 66 19 100 100 Calm 29.97 1015 10 16 0.00 0.00
6:35 am 06:35 Sunny 68 20 68 20 100 100 Calm 29.97 1015 10 16 0.00 0.00
6:55 am 06:55 Sunny 66 19 66 19 100 100 Calm 29.97 1015 7 11 0.00 0.00
7:15 am 07:15 Sunny 66 19 66 19 100 100 Calm 29.97 1015 7 11 0.00 0.00
7:35 am 07:35 Sunny 68 20 68 20 100 100 Calm 30.00 1016 7 11 0.00 0.00
7:55 am 07:55 Sunny 70 21 70 21 100 100 Calm 29.97 1015 10 16 0.00 0.00
8:15 am 08:15 Sunny 72 22 70 21 94 94 SSE 3 6 29.97 1015 10 16 0.00 0.00
8:35 am 08:35 Sunny 72 22 70 21 94 94 Calm 30.00 1016 10 16 0.00 0.00
8:55 am 08:55 Sunny 73 23 72 22 94 94 Calm 30.00 1016 10 16 0.00 0.00
9:15 am 09:15 Sunny 77 25 72 22 83 83 Calm 30.00 1016 10 16 0.00 0.00
9:35 am 09:35 Sunny 79 26 72 22 79 79 Calm 30.00 1016 10 16 0.00 0.00
9:55 am 09:55 Sunny 79 26 72 22 79 79 Calm 30.00 1016 10 16 0.00 0.00
10:15 am 10:15 Sunny 81 27 73 23 79 79 Calm 30.03 1017 10 16 0.00 0.00
10:35 am 10:35 Sunny 82 28 73 23 74 74 SSE 6 9 30.03 1017 10 16 0.00 0.00
10:55 am 10:55 Sunny 82 28 72 22 70 70 Calm 30.00 1016 10 16 0.00 0.00
11:15 am 11:15 Sunny 86 30 72 22 62 62 Calm 30.00 1016 10 16 0.00 0.00
11:35 am 11:35 Sunny 86 30 72 22 62 62 Calm 30.00 1016 10 16 0.00 0.00
11:55 am 11:55 Sunny 86 30 70 21 59 59 NW 3 6 30.00 1016 10 16 0.00 0.00
12:15 pm 12:15 Sunny 88 31 70 21 55 55 Calm 29.97 1015 10 16 0.00 0.00
12:35 pm 12:35 Sunny 88 31 70 21 55 55 Calm 29.97 1015 10 16 0.00 0.00
12:55 pm 12:55 Sunny 90 32 68 20 49 49 Calm 29.97 1015 10 16 0.00 0.00
1:15 pm 13:15 Sunny 90 32 70 21 52 52 Calm 29.97 1015 10 16 0.00 0.00
1:35 pm 13:35 Sunny 90 32 68 20 49 49 WSW 3 6 29.94 1014 10 16 0.00 0.00
1:55 pm 13:55 Sunny 90 32 70 21 52 52 Calm 29.94 1014 10 16 0.00 0.00
2:15 pm 14:15 Sunny 90 32 70 21 52 52 Calm 29.94 1014 10 16 0.00 0.00
2:35 pm 14:35 Sunny 91 33 66 19 44 44 S 7 11 29.94 1014 10 16 0.00 0.00
2:55 pm 14:55 Sunny 91 33 66 19 44 44 S 7 11 29.91 1013 10 16 0.00 0.00
3:15 pm 15:15 Sunny 91 33 66 19 44 44 S 8 13 29.91 1013 10 16 0.00 0.00
3:35 pm 15:35 Sunny 90 32 72 22 55 55 S 17 28 29.91 1013 10 16 0.00 0.00
3:55 pm 15:55 Sunny 90 32 70 21 52 52 SSW 7 11 29.91 1013 10 16 0.00 0.00
4:15 pm 16:15 Sunny 88 31 70 21 55 55 SW 5 7 29.94 1014 10 16 0.00 0.00
4:35 pm 16:35 Mostly Cloudy with Nearby Thunderstorms 86 30 70 21 59 59 SW 5 7 29.94 1014 10 16 0.00 0.00
4:55 pm 16:55 Mostly Cloudy with Nearby Thunderstorms 86 30 72 22 62 62 NW 12 19 29.94 1014 10 16 0.00 0.00
5:15 pm 17:15 Cloudy with Nearby Thunderstorms 73 23 70 21 89 89 NNW 22 35 30.00 1016 10 16 0.00 0.00
5:35 pm 17:35 Cloudy 70 21 70 21 100 100 N 12 19 30.00 1016 1 1 0.00 0.00
5:55 pm 17:55 Cloudy with Light Rain 70 21 70 21 100 100 E 3 6 30.03 1017 7 11 0.00 0.00
6:15 pm 18:15 Cloudy with Light Rain 68 20 68 20 100 100 Calm 30.00 1016 10 16 0.00 0.00
6:35 pm 18:35 Mostly Cloudy 68 20 68 20 100 100 Calm 30.00 1016 10 16 0.00 0.00
6:55 pm 18:55 Partly Cloudy 70 21 70 21 100 100 Calm 30.00 1016 10 16 0.00 0.00
7:15 pm 19:15 Partly Cloudy 70 21 70 21 100 100 NE 3 6 30.00 1016 10 16 0.00 0.00
7:35 pm 19:35 Partly Cloudy 70 21 70 21 100 100 NE 3 6 30.00 1016 10 16 0.00 0.00
7:55 pm 19:55 Sunny 70 21 70 21 100 100 Calm 30.00 1016 10 16 0.00 0.00
8:15 pm 20:15 Partly Cloudy 68 20 68 20 100 100 E 3 6 30.00 1016 10 16 0.00 0.00
8:35 pm 20:35 Clear 68 20 68 20 100 100 Calm 30.00 1016 10 16 0.00 0.00
8:55 pm 20:55 Clear 68 20 68 20 100 100 Calm 30.00 1016 10 16 0.00 0.00
9:15 pm 21:15 Clear 68 20 68 20 100 100 Calm 30.00 1016 10 16 0.00 0.00
9:35 pm 21:35 Clear 68 20 68 20 100 100 Calm 30.03 1017 10 16 0.00 0.00
9:55 pm 21:55 Clear 68 20 68 20 100 100 Calm 30.03 1017 10 16 0.00 0.00
10:15 pm 22:15 Clear 66 19 66 19 100 100 Calm 30.03 1017 10 16 0.00 0.00
10:35 pm 22:35 Clear 66 19 66 19 100 100 Calm 30.03 1017 10 16 0.00 0.00
10:55 pm 22:55 Clear 64 18 64 18 100 100 Calm 30.03 1017 10 16 0.00 0.00
11:15 pm 23:15 Clear 64 18 64 18 100 100 Calm 30.03 1017 10 16 0.00 0.00
11:35 pm 23:35 Clear 64 18 64 18 100 100 Calm 30.03 1017 10 16 0.00 0.00
11:55 pm 23:55 Clear 64 18 64 18 100 100 WNW 5 7 30.03 1017 7 11 0.00 0.00

Powered by AerisWeather